Air Resources Laboratory banner image
Air Resources Laboratory web site National Oceanic and Atmospheric Administration (NOAA)

ma zone


NYZ176-178-MAZ016-IL014-TNZ027-NJZ106-GAZ044-MD014-180200-

...Gateway Observations for Charleston International...

CITY           SKY/WX    TMP DP  RH WIND       PRES   REMARKS
Chas Airport   CLOUDY    60  59  96 S9        30.10S
Seattle        MOCLDY    45  36  70 SW18G31   29.60F
Charlotte      CLOUDY    49  48  97 N7        30.09R
Dallas DFW     MOCLDY    55  44  66 NE7       30.16R
Dallas Love    MOCLDY    58  46  64 NE5       30.17R
Philladelphia  LGT SNOW  32  31  96 NE3       30.13F VSB 3/4
Wash National  CLOUDY    35  33  92 SE5       30.13F WCI  31
Baltimore      LGTSLEET  33  33 100 CALM      30.11F FOG
Miami          FAIR      76  69  79 VRB6      30.21R
Detroit        CLOUDY    32  25  75 S3        29.98F
Newark         LGT SNOW  33  31  92 NE5       30.17F VSB 3/4 WCI  29
Laguardia      SNOW      33  30  88 NE8       30.17F VSB 1/2 WCI  26
J F K          LGT SNOW  32  32 100 N7        30.18F VSB 3/4 WCI  26
Boston Logan   CLOUDY    34  25  69 S12       30.25F WCI  25
Ft. Lauderdale FAIR      75  69  81 SE6       30.21R
Chicago O'Hare CLOUDY    33  29  85 W13       30.00R WCI  24
Chicago Midway CLOUDY    33  30  88 W12       30.02R WCI  24
Houston Bush   CLOUDY    60  53  77 N12       30.13R
Houston Hobby  MOCLDY    69  61  75 N14       30.11R
Nashville      CLOUDY    48  44  86 W8        30.17R
Atlanta        MOCLDY    70  56  61 SW9       30.08R


NYZ176-178-MAZ106-OHZ011-021-055-MIZ076-KYZ091-ILZ014-INZ047-
MNZ060-ONZ431-180200-

...Gateway Observations for Savannah International...

CITY           SKY/WX    TMP DP  RH WIND       PRES   REMARKS
Savannah Arpt  FAIR      65  61  87 S7        30.11S
Atlanta        MOCLDY    70  56  61 SW9       30.08R
Charlotte      CLOUDY    49  48  97 N7        30.09R
Dallas DFW     MOCLDY    55  44  66 NE7       30.16R
Houston Bush   CLOUDY    60  53  77 N12       30.13R
Wash National  CLOUDY    35  33  92 SE5       30.13F WCI  31
Wash Dulles    CLOUDY    33  32  96 SE7       30.07F WCI  27
Baltimore      LGTSLEET  33  33 100 CALM      30.11F FOG
Philadelphia   LGT SNOW  32  31  96 NE3       30.13F VSB 3/4
Newark         LGT SNOW  33  31  92 NE5       30.17F VSB 3/4 WCI  29
Laguardia      SNOW      33  30  88 NE8       30.17F VSB 1/2 WCI  26
J F K          LGT SNOW  32  32 100 N7        30.18F VSB 3/4 WCI  26
Boston         CLOUDY    34  25  69 S12       30.25F WCI  25
Pittsburg      LGT SNOW  32  32 100 CALM      29.98S VSB 3/4
Akron          LGT SNOW  31  28  89 SW5       30.00R FOG     WCI  26
Cleveland      FLURRIES  32  28  85 S3        30.03S
Cincinnati     SNOW      34  34 100 SW5       30.06R VSB 1/2 WCI  30
Columbus       LGT SNOW  32  32 100 SW3       30.05R
Detroit        CLOUDY    32  25  75 S3        29.98F
Chicago O'Hare CLOUDY    33  29  85 W13       30.00R WCI  24
Minneapolis    FAIR      29  13  51 NW13G22   30.00R WCI  19
Indianapolis   CLOUDY    34  33  96 SW16      30.06R FOG     WCI  24
Toronto Canada CLOUDY    28  19  69 S7        29.97F WCI  21


NYZ176-178-MAZ016-IL014-TNZ027-NJZ106-GAZ044-MD014-180200-

...Gateway Observations for Charleston International...

CITY           SKY/WX    TMP DP  RH WIND       PRES   REMARKS
Chas Airport   CLOUDY    60  59  96 S9        30.10S
Seattle        MOCLDY    45  36  70 SW18G31   29.60F
Charlotte      CLOUDY    49  48  97 N7        30.09R
Dallas DFW     MOCLDY    55  44  66 NE7       30.16R
Dallas Love    MOCLDY    58  46  64 NE5       30.17R
Philladelphia  LGT SNOW  32  31  96 NE5       30.12F VSB 3/4 WCI  27
Wash National  DRIZZLE   35  33  92 S7        30.09F WCI  29
Baltimore      LGT RAIN  33  33 100 CALM      30.09F FOG
Miami          FAIR      76  69  79 VRB6      30.21R
Detroit        CLOUDY    32  25  75 S3        29.98F
Newark         LGT SNOW  33  31  92 NE5       30.17F VSB 3/4 WCI  29
Laguardia      SNOW      33  30  88 NE8       30.17F VSB 1/2 WCI  26
J F K          LGT SNOW  32  32 100 N7        30.18F VSB 3/4 WCI  26
Boston Logan   CLOUDY    34  25  69 S12       30.25F WCI  25
Ft. Lauderdale FAIR      75  69  81 SE6       30.21R
Chicago O'Hare MOCLDY    32  27  81 W14       30.02R WCI  22
Chicago Midway CLOUDY    33  30  88 W12       30.02R WCI  24
Houston Bush   CLOUDY    60  53  77 N12       30.13R
Houston Hobby  MOCLDY    69  61  75 N14       30.11R
Nashville      CLOUDY    48  44  86 W8        30.17R
Atlanta        MOCLDY    70  56  61 SW9       30.08R


NYZ176-178-MAZ106-OHZ011-021-055-MIZ076-KYZ091-ILZ014-INZ047-
MNZ060-ONZ431-180200-

...Gateway Observations for Savannah International...

CITY           SKY/WX    TMP DP  RH WIND       PRES   REMARKS
Savannah Arpt  FAIR      65  61  87 S7        30.11S
Atlanta        MOCLDY    70  56  61 SW9       30.08R
Charlotte      CLOUDY    49  48  97 N7        30.09R
Dallas DFW     MOCLDY    55  44  66 NE7       30.16R
Houston Bush   CLOUDY    60  53  77 N12       30.13R
Wash National  DRIZZLE   35  33  92 S7        30.09F WCI  29
Wash Dulles    CLOUDY    33  32  96 SE7       30.07F WCI  27
Baltimore      LGT RAIN  33  33 100 CALM      30.09F FOG
Philadelphia   LGT SNOW  32  31  96 NE5       30.12F VSB 3/4 WCI  27
Newark         LGT SNOW  33  31  92 NE5       30.17F VSB 3/4 WCI  29
Laguardia      SNOW      33  30  88 NE8       30.17F VSB 1/2 WCI  26
J F K          LGT SNOW  32  32 100 N7        30.18F VSB 3/4 WCI  26
Boston         CLOUDY    34  25  69 S12       30.25F WCI  25
Pittsburg      LGT SNOW  32  32 100 CALM      29.98S VSB 3/4
Akron          LGT SNOW  31  28  89 SW5       30.00R FOG     WCI  26
Cleveland      FLURRIES  32  28  85 S6        30.02F WCI  26
Cincinnati     SNOW      34  34 100 SW5       30.06R VSB 1/2 WCI  30
Columbus       LGT SNOW  32  32 100 SW3       30.04S
Detroit        CLOUDY    32  25  75 S3        29.98F
Chicago O'Hare MOCLDY    32  27  81 W14       30.02R WCI  22
Minneapolis    FAIR      29  13  51 NW13G22   30.00R WCI  19
Indianapolis   CLOUDY    34  33  96 SW16      30.06R FOG     WCI  24
Toronto Canada CLOUDY    28  19  69 S7        29.97F WCI  21